• In Belarus
  • List of Countries
  • For 7 days
  • Water Temperature
  • Weather Map
  • Weather Widgets
  • user-avatar
    Login

    Hourly Weather Eisenstadt

    Today, 5 June, Friday

    Time Temperature Precipitation Wind Pressure Humidity
    00:00 +15°C° 0 mm 5 mps 709 mmHg 74%
    01:00 +14°C° 0 mm 4 mps 709 mmHg 74%
    02:00 +14°C° 0.2 mm 3 mps 709 mmHg 78%
    03:00 +14°C° 0.2 mm 2 mps 708 mmHg 82%
    04:00 +14°C° 0.2 mm 1 mps 708 mmHg 86%
    05:00 +14°C° 2.4 mm 1 mps 708 mmHg 89%
    06:00 +14°C° 2.4 mm 2 mps 708 mmHg 91%
    07:00 +14°C° 0 mm 1 mps 709 mmHg 94%
    08:00 +14°C° 0.8 mm 1 mps 709 mmHg 94%
    09:00 +13°C° 0.8 mm 2 mps 710 mmHg 93%
    10:00 +13°C° 0.8 mm 2 mps 710 mmHg 93%
    11:00 +14°C° 0.5 mm 2 mps 710 mmHg 90%
    12:00 +14°C° 0.5 mm 2 mps 710 mmHg 87%
    13:00 +14°C° 0.5 mm 2 mps 711 mmHg 84%
    14:00 +15°C° 0 mm 2 mps 711 mmHg 80%
    15:00 +16°C° 0 mm 1 mps 711 mmHg 76%
    16:00 +16°C° 0 mm 1 mps 711 mmHg 72%
    17:00 +16°C° 0 mm 1 mps 712 mmHg 75%
    18:00 +15°C° 0 mm 1 mps 712 mmHg 79%
    19:00 +15°C° 0 mm 1 mps 712 mmHg 82%
    20:00 +14°C° 0 mm 1 mps 713 mmHg 85%
    21:00 +13°C° 0 mm 1 mps 713 mmHg 87%
    22:00 +12°C° 0 mm 1 mps 714 mmHg 90%
    23:00 +12°C° 0 mm 1 mps 714 mmHg 90%

    Tomorrow, 6 June, Saturday

    Time Temperature Precipitation Wind Pressure Humidity
    00:00 +12°C° 0 mm 1 mps 715 mmHg 90%
    01:00 +11°C° 0 mm 1 mps 715 mmHg 90%
    02:00 +11°C° 0 mm 1 mps 716 mmHg 89%
    03:00 +11°C° 0 mm 1 mps 716 mmHg 89%
    04:00 +11°C° 0 mm 1 mps 716 mmHg 89%
    05:00 +13°C° 0 mm 1 mps 717 mmHg 83%
    06:00 +14°C° 0 mm 1 mps 717 mmHg 78%
    07:00 +15°C° 0 mm 0 mps 717 mmHg 73%
    08:00 +17°C° 0 mm 2 mps 717 mmHg 67%
    09:00 +19°C° 0 mm 3 mps 718 mmHg 62%
    10:00 +20°C° 0 mm 4 mps 718 mmHg 56%
    11:00 +20°C° 0 mm 4 mps 717 mmHg 58%
    12:00 +20°C° 0 mm 4 mps 717 mmHg 59%
    13:00 +21°C° 0 mm 3 mps 716 mmHg 61%
    14:00 +21°C° 0.1 mm 3 mps 716 mmHg 63%
    15:00 +21°C° 0.1 mm 3 mps 716 mmHg 64%
    16:00 +22°C° 0.1 mm 3 mps 715 mmHg 66%
    17:00 +21°C° 0.2 mm 3 mps 715 mmHg 73%
    18:00 +20°C° 0.2 mm 2 mps 715 mmHg 79%
    19:00 +19°C° 0.2 mm 2 mps 714 mmHg 86%
    20:00 +18°C° 0.1 mm 2 mps 715 mmHg 88%
    21:00 +18°C° 0.1 mm 1 mps 715 mmHg 90%
    22:00 +15°C° 0.1 mm 1 mps 715 mmHg 92%
    23:00 +15°C° 0 mm 1 mps 715 mmHg 92%

    Day after tomorrow, 7 June, Sunday

    Time Temperature Precipitation Wind Pressure Humidity
    00:00 +15°C° 0 mm 1 mps 715 mmHg 92%
    01:00 +15°C° 0 mm 1 mps 715 mmHg 92%
    02:00 +14°C° 0 mm 1 mps 715 mmHg 93%
    03:00 +14°C° 0 mm 1 mps 715 mmHg 93%
    04:00 +14°C° 0 mm 1 mps 715 mmHg 94%
    05:00 +15°C° 0 mm 1 mps 715 mmHg 91%
    06:00 +16°C° 0 mm 1 mps 715 mmHg 88%
    07:00 +19°C° 0 mm 1 mps 715 mmHg 86%
    08:00 +19°C° 0 mm 1 mps 715 mmHg 84%
    09:00 +19°C° 0 mm 1 mps 715 mmHg 82%
    10:00 +20°C° 0 mm 1 mps 716 mmHg 81%
    11:00 +21°C° 0.5 mm 1 mps 716 mmHg 79%
    12:00 +22°C° 0.5 mm 1 mps 716 mmHg 77%
    13:00 +23°C° 0.5 mm 2 mps 716 mmHg 74%
    14:00 +23°C° 1.8 mm 1 mps 715 mmHg 75%
    15:00 +23°C° 1.8 mm 1 mps 715 mmHg 76%
    16:00 +23°C° 1.8 mm 1 mps 715 mmHg 77%
    17:00 +22°C° 1.9 mm 1 mps 715 mmHg 81%
    18:00 +19°C° 1.9 mm 2 mps 715 mmHg 85%
    19:00 +18°C° 1.9 mm 2 mps 715 mmHg 89%
    20:00 +17°C° 0.7 mm 2 mps 715 mmHg 90%
    21:00 +17°C° 0.7 mm 2 mps 716 mmHg 92%
    22:00 +16°C° 0.7 mm 2 mps 716 mmHg 94%
    23:00 +15°C° 0.3 mm 2 mps 716 mmHg 94%

    8 June, Monday

    Time Temperature Precipitation Wind Pressure Humidity
    00:00 +15°C° 0.3 mm 2 mps 716 mmHg 94%
    01:00 +15°C° 0.3 mm 2 mps 716 mmHg 94%
    02:00 +15°C° 0.2 mm 2 mps 716 mmHg 94%
    03:00 +15°C° 0.2 mm 2 mps 716 mmHg 93%
    04:00 +14°C° 0.2 mm 2 mps 716 mmHg 93%
    05:00 +15°C° 0.2 mm 2 mps 716 mmHg 92%
    06:00 +15°C° 0.2 mm 1 mps 717 mmHg 91%
    07:00 +15°C° 0.2 mm 1 mps 717 mmHg 91%
    08:00 +16°C° 0.3 mm 1 mps 717 mmHg 88%
    09:00 +16°C° 0.3 mm 1 mps 718 mmHg 85%
    10:00 +18°C° 0.3 mm 1 mps 718 mmHg 82%
    11:00 +17°C° 0.2 mm 2 mps 718 mmHg 84%
    12:00 +16°C° 0.2 mm 2 mps 718 mmHg 85%
    13:00 +16°C° 0.2 mm 2 mps 718 mmHg 86%
    14:00 +16°C° 0.1 mm 2 mps 718 mmHg 86%
    15:00 +16°C° 0.1 mm 2 mps 718 mmHg 85%
    16:00 +15°C° 0.1 mm 2 mps 718 mmHg 85%
    17:00 +15°C° 0 mm 2 mps 718 mmHg 85%
    18:00 +15°C° 0 mm 2 mps 719 mmHg 84%
    19:00 +15°C° 0 mm 2 mps 719 mmHg 84%
    20:00 +14°C° 0 mm 2 mps 719 mmHg 85%
    21:00 +14°C° 0 mm 2 mps 719 mmHg 87%
    22:00 +13°C° 0 mm 2 mps 719 mmHg 88%
    23:00 +13°C° 0 mm 2 mps 719 mmHg 89%

    9 June, Tuesday

    Time Temperature Precipitation Wind Pressure Humidity
    00:00 +12°C° 0 mm 2 mps 719 mmHg 91%
    01:00 +12°C° 0 mm 2 mps 719 mmHg 92%
    02:00 +10°C° 0 mm 2 mps 719 mmHg 91%
    03:00 +10°C° 0 mm 2 mps 719 mmHg 91%
    04:00 +10°C° 0 mm 2 mps 719 mmHg 91%
    05:00 +13°C° 0 mm 2 mps 719 mmHg 86%
    06:00 +14°C° 0 mm 2 mps 720 mmHg 81%
    07:00 +16°C° 0 mm 2 mps 720 mmHg 76%
    08:00 +17°C° 0 mm 2 mps 720 mmHg 71%
    09:00 +19°C° 0 mm 2 mps 720 mmHg 66%
    10:00 +20°C° 0 mm 2 mps 720 mmHg 61%
    11:00 +21°C° 0 mm 3 mps 720 mmHg 60%
    12:00 +21°C° 0 mm 3 mps 720 mmHg 60%
    13:00 +22°C° 0 mm 3 mps 720 mmHg 59%
    14:00 +21°C° 0.1 mm 3 mps 719 mmHg 62%
    15:00 +21°C° 0.1 mm 3 mps 719 mmHg 65%
    16:00 +21°C° 0.1 mm 3 mps 719 mmHg 68%
    17:00 +20°C° 0.1 mm 3 mps 719 mmHg 73%
    18:00 +19°C° 0.1 mm 3 mps 719 mmHg 78%
    19:00 +18°C° 0.1 mm 2 mps 719 mmHg 83%
    20:00 +17°C° 0 mm 2 mps 719 mmHg 86%
    21:00 +15°C° 0 mm 2 mps 719 mmHg 88%
    22:00 +14°C° 0 mm 2 mps 719 mmHg 90%
    23:00 +14°C° 0 mm 2 mps 719 mmHg 91%

    10 June, Wednesday

    Time Temperature Precipitation Wind Pressure Humidity
    00:00 +14°C° 0 mm 2 mps 719 mmHg 91%
    01:00 +13°C° 0 mm 2 mps 719 mmHg 91%
    02:00 +13°C° 0 mm 2 mps 719 mmHg 91%
    03:00 +13°C° 0 mm 2 mps 719 mmHg 91%
    04:00 +13°C° 0 mm 2 mps 719 mmHg 91%
    05:00 +14°C° 0 mm 2 mps 719 mmHg 88%
    06:00 +15°C° 0 mm 2 mps 719 mmHg 86%
    07:00 +16°C° 0 mm 2 mps 719 mmHg 83%
    08:00 +17°C° 0.1 mm 2 mps 720 mmHg 81%
    09:00 +18°C° 0.1 mm 2 mps 720 mmHg 78%
    10:00 +19°C° 0.1 mm 2 mps 720 mmHg 76%
    11:00 +20°C° 0.3 mm 2 mps 720 mmHg 74%
    12:00 +21°C° 0.3 mm 2 mps 720 mmHg 72%
    13:00 +22°C° 0.3 mm 3 mps 719 mmHg 71%
    14:00 +22°C° 0.7 mm 3 mps 719 mmHg 73%
    15:00 +22°C° 0.7 mm 3 mps 719 mmHg 76%
    16:00 +21°C° 0.7 mm 2 mps 719 mmHg 79%
    17:00 +20°C° 1.4 mm 2 mps 719 mmHg 83%
    18:00 +19°C° 1.4 mm 2 mps 719 mmHg 87%
    19:00 +18°C° 1.4 mm 2 mps 719 mmHg 90%
    20:00 +17°C° 0.6 mm 3 mps 719 mmHg 92%
    21:00 +17°C° 0.6 mm 3 mps 719 mmHg 93%
    22:00 +16°C° 0.6 mm 3 mps 719 mmHg 94%
    23:00 +16°C° 0.1 mm 3 mps 719 mmHg 93%
    Show more